User: anonymous   Login
Location: Ahausen
(50.4985°N, 8.2722°E)
Time: 09:51:39
(UTC+00:00)
Language:

IXPE - Orbit

View from above orbital plane
View from above orbital plane
View from above satellite
View from above satellite

Ground track
Ground track

The orbit data is extracted from the following two-line orbital elements,

1 49954U 21121A   22333.74457284  .00002490  00000-0  16482-3 0  9991
2 49954   0.2295 248.5061 0011030 204.4242 267.1958 14.92083803 53150
Epoch (UTC): 29 November 2022 17:52:11
Eccentricity: 0.0011030
inclination: 0.2295°
perigee height: 584 km
apogee height: 599 km
right ascension of ascending node: 248.5061°
argument of perigee: 204.4242°
revolutions per day: 14.92083803
mean anomaly at epoch: 267.1958°
orbit number at epoch: 5315

The dashed part of the orbit path shows where the satellite is in the earth's shadow,  

DLR